Date String (YYYY-MM-DD hh:mm:ss) UTC,Instrument flags,absolute air pressure of the measurement (hPa),sample flow rate (lpm),inlet stack bypass flow (lpm),air temperature of the measurement (°C),ambient temperature measured by the external sensor (°C),aerosol sample conditioner tube jacket temperature (°C),OPC LED temperature (°C),internal box temperature (°C),relative humidity of the measurement (%),span deviation,mass concentration of particles derived from Lorenz-Mie calculation of OPC scattering (μg/m³),mass concentration of particles derived from Lorenz-Mie calculation of OPC scattering (μg/m³),mass concentration of particles derived from Lorenz-Mie calculation of OPC scattering (μg/m³)
DateTimeUTC,F1_M11,P_M11,Q1_M11,Q2_M11,T1_M11,T2_M11,T3_M11,T4_M11,T5_M11,U1_M11,ZSPAN_M11,X2_M11,X0_M11,X1_M11
2023-06-18 05:00:00,SystemResetWarning,0829.5,5.01,000.00,029.7,027.7,000.0,038.3,031.2,17.0,0000.0,0003.31,0006.27,0003.01
2023-06-18 05:01:00,SystemResetWarning,0829.4,5.00,000.00,029.7,027.8,000.0,038.3,031.2,16.7,0000.0,0003.29,0006.24,0003.02
2023-06-18 05:02:00,SystemResetWarning,0829.5,5.00,000.00,029.7,027.8,000.0,038.3,031.2,16.7,0000.0,0003.28,0006.01,0003.03
2023-06-18 05:03:00,SystemResetWarning,0829.5,5.00,000.00,029.7,027.9,000.0,038.3,031.2,16.9,0000.0,0003.28,0006.00,0003.04
2023-06-18 05:04:00,SystemResetWarning,0829.4,5.00,000.00,029.7,027.9,000.0,038.3,031.2,16.9,0000.0,0003.29,0006.04,0003.04
2023-06-18 05:05:00,SystemResetWarning,0829.5,5.00,000.00,029.7,028.0,000.0,038.3,031.2,16.8,0000.0,0003.30,0006.06,0003.04
2023-06-18 05:06:00,SystemResetWarning,0829.4,5.00,000.00,029.7,028.0,000.0,038.3,031.2,16.8,0000.0,0003.31,0005.97,0003.06
2023-06-18 05:07:00,SystemResetWarning,0829.4,5.00,000.00,029.7,028.0,000.0,038.3,031.2,16.9,0000.0,0003.33,0005.90,0003.09
2023-06-18 05:08:00,SystemResetWarning,0829.3,5.00,000.00,029.8,028.1,000.0,038.3,031.2,16.9,0000.0,0003.32,0005.13,0003.09
2023-06-18 05:09:00,SystemResetWarning,0829.3,5.00,000.00,029.8,028.1,000.0,038.3,031.3,16.9,0000.0,0003.33,0005.50,0003.10
2023-06-18 05:10:00,SystemResetWarning,0829.3,5.00,000.00,029.8,028.1,000.0,038.3,031.3,16.8,0000.0,0003.35,0006.02,0003.11
2023-06-18 05:11:00,SystemResetWarning,0829.3,5.00,000.00,029.8,028.2,000.0,038.3,031.3,16.6,0000.0,0003.39,0006.12,0003.13
2023-06-18 05:12:00,SystemResetWarning,0829.3,5.00,000.00,029.8,028.2,000.0,038.3,031.3,16.5,0000.0,0003.41,0006.15,0003.14
2023-06-18 05:13:00,SystemResetWarning,0829.3,5.00,000.00,029.8,028.2,000.0,038.3,031.4,16.7,0000.0,0003.43,0006.34,0003.14
2023-06-18 05:14:00,SystemResetWarning,0829.3,5.00,000.00,029.8,028.2,000.0,038.4,031.3,16.9,0000.0,0003.47,0006.73,0003.16
2023-06-18 05:15:00,SystemResetWarning,0829.3,5.00,000.00,029.8,028.2,000.0,038.4,031.4,16.9,0000.0,0003.47,0006.76,0003.16
2023-06-18 05:16:00,SystemResetWarning,0829.3,5.00,000.00,029.9,028.2,000.0,038.4,031.3,17.0,0000.0,0003.48,0006.66,0003.17
2023-06-18 05:17:00,SystemResetWarning,0829.3,5.00,000.00,029.9,028.2,000.0,038.4,031.4,16.9,0000.0,0003.49,0006.71,0003.17
2023-06-18 05:18:00,SystemResetWarning,0829.3,5.00,000.00,029.9,028.3,000.0,038.4,031.4,16.9,0000.0,0003.50,0006.67,0003.17
2023-06-18 05:19:00,SystemResetWarning,0829.3,5.00,000.00,029.9,028.3,000.0,038.4,031.4,16.8,0000.0,0003.48,0006.63,0003.16
2023-06-18 05:20:00,SystemResetWarning,0829.3,5.00,000.00,029.9,028.3,000.0,038.4,031.4,16.8,0000.0,0003.47,0006.02,0003.16
2023-06-18 05:21:00,SystemResetWarning,0829.3,5.00,000.00,029.9,028.3,000.0,038.4,031.5,16.8,0000.0,0003.46,0005.19,0003.16
2023-06-18 05:22:00,SystemResetWarning,0829.3,4.99,000.00,029.9,028.3,000.0,038.4,031.5,16.9,0000.0,0003.46,0005.26,0003.16
2023-06-18 05:23:00,SystemResetWarning,0829.3,5.01,000.00,029.9,028.3,000.0,038.4,031.4,16.9,0000.0,0003.45,0005.14,0003.16
2023-06-18 05:24:00,SystemResetWarning,0829.3,5.00,000.00,030.0,028.3,000.0,038.4,031.5,16.9,0000.0,0003.46,0005.06,0003.17
2023-06-18 05:25:00,SystemResetWarning,0829.3,5.00,000.00,030.0,028.3,000.0,038.5,031.5,17.0,0000.0,0003.45,0004.78,0003.15
2023-06-18 05:26:00,SystemResetWarning,0829.3,5.00,000.00,030.0,028.3,000.0,038.5,031.5,17.0,0000.0,0003.45,0004.79,0003.15
2023-06-18 05:27:00,SystemResetWarning,0829.4,5.00,000.00,030.0,028.3,000.0,038.5,031.4,17.1,0000.0,0003.45,0004.89,0003.16
2023-06-18 05:28:00,SystemResetWarning,0829.3,5.00,000.00,030.0,028.3,000.0,038.5,031.5,17.1,0000.0,0003.46,0004.95,0003.16
2023-06-18 05:29:00,SystemResetWarning,0829.3,5.01,000.00,030.0,028.3,000.0,038.5,031.5,17.0,0000.0,0003.47,0005.06,0003.16
2023-06-18 05:30:00,SystemResetWarning,0829.4,5.01,000.00,030.0,028.4,000.0,038.5,031.5,17.1,0000.0,0003.47,0005.11,0003.16
2023-06-18 05:31:00,SystemResetWarning,0829.3,5.00,000.00,030.0,028.4,000.0,038.5,031.5,17.1,0000.0,0003.46,0005.05,0003.16
2023-06-18 05:32:00,SystemResetWarning,0829.3,5.00,000.00,030.0,028.4,000.0,038.5,031.5,17.0,0000.0,0003.44,0005.02,0003.15
2023-06-18 05:33:00,SystemResetWarning,0829.3,5.00,000.00,030.0,028.4,000.0,038.5,031.5,17.0,0000.0,0003.42,0005.03,0003.14
2023-06-18 05:34:00,SystemResetWarning,0829.3,4.99,000.00,030.0,028.4,000.0,038.5,031.5,17.0,0000.0,0003.42,0005.07,0003.13
2023-06-18 05:35:00,SystemResetWarning,0829.2,5.00,000.00,030.1,028.4,000.0,038.5,031.6,17.0,0000.0,0003.42,0005.19,0003.11
2023-06-18 05:36:00,SystemResetWarning,0829.2,4.99,000.00,030.1,028.4,000.0,038.6,031.5,16.8,0000.0,0003.41,0005.20,0003.10
2023-06-18 05:37:00,SystemResetWarning,0829.2,4.99,000.00,030.1,028.4,000.0,038.6,031.6,16.8,0000.0,0003.41,0005.24,0003.08
2023-06-18 05:38:00,SystemResetWarning,0829.2,5.00,000.00,030.1,028.4,000.0,038.6,031.6,16.8,0000.0,0003.41,0005.26,0003.08
2023-06-18 05:39:00,SystemResetWarning,0829.2,5.00,000.00,030.1,028.4,000.0,038.6,031.5,16.9,0000.0,0003.39,0005.25,0003.06
2023-06-18 05:40:00,SystemResetWarning,0829.1,5.01,000.00,030.1,028.5,000.0,038.6,031.6,16.9,0000.0,0003.36,0005.10,0003.05
2023-06-18 05:41:00,SystemResetWarning,0829.1,5.01,000.00,030.1,028.5,000.0,038.6,031.6,17.0,0000.0,0003.37,0005.30,0003.04
2023-06-18 05:42:00,SystemResetWarning,0829.1,5.00,000.00,030.1,028.5,000.0,038.6,031.6,17.0,0000.0,0003.37,0005.69,0003.02
2023-06-18 05:43:00,SystemResetWarning,0829.1,5.00,000.00,030.1,028.5,000.0,038.6,031.6,17.0,0000.0,0003.39,0005.70,0003.01
2023-06-18 05:44:00,SystemResetWarning,0829.1,5.00,000.00,030.1,028.5,000.0,038.6,031.6,17.0,0000.0,0003.36,0005.52,0002.99
2023-06-18 05:45:00,SystemResetWarning,0829.1,4.99,000.00,030.1,028.5,000.0,038.6,031.7,17.1,0000.0,0003.34,0005.52,0002.96
2023-06-18 05:46:00,SystemResetWarning,0829.1,5.01,000.00,030.1,028.5,000.0,038.6,031.7,17.0,0000.0,0003.32,0005.42,0002.96
2023-06-18 05:47:00,SystemResetWarning,0829.1,5.00,000.00,030.2,028.5,000.0,038.7,031.6,17.0,0000.0,0003.29,0005.34,0002.94
2023-06-18 05:48:00,SystemResetWarning,0829.2,5.00,000.00,030.2,028.5,000.0,038.7,031.6,17.1,0000.0,0003.25,0005.20,0002.92
2023-06-18 05:49:00,SystemResetWarning,0829.2,5.00,000.00,030.2,028.5,000.0,038.7,031.6,17.1,0000.0,0003.20,0004.96,0002.88
2023-06-18 05:50:00,SystemResetWarning,0829.2,5.01,000.00,030.2,028.5,000.0,038.7,031.7,17.1,0000.0,0003.21,0004.94,0002.86
2023-06-18 05:51:00,SystemResetWarning,0829.3,5.00,000.00,030.2,028.5,000.0,038.7,031.7,17.2,0000.0,0003.20,0004.95,0002.85
2023-06-18 05:52:00,SystemResetWarning,0829.2,4.99,000.00,030.2,028.5,000.0,038.7,031.7,17.2,0000.0,0003.17,0004.73,0002.84
2023-06-18 05:53:00,SystemResetWarning,0829.2,5.00,000.00,030.2,028.5,000.0,038.7,031.7,17.1,0000.0,0003.16,0004.39,0002.81
2023-06-18 05:54:00,SystemResetWarning,0829.2,5.00,000.00,030.2,028.5,000.0,038.7,031.7,17.0,0000.0,0003.14,0004.39,0002.81
2023-06-18 05:55:00,SystemResetWarning,0829.2,5.00,000.00,030.2,028.5,000.0,038.7,031.7,17.0,0000.0,0003.14,0004.43,0002.81
2023-06-18 05:56:00,SystemResetWarning,0829.1,5.00,000.00,030.2,028.5,000.0,038.7,031.7,16.9,0000.0,0003.18,0004.83,0002.83
2023-06-18 05:57:00,SystemResetWarning,0829.1,5.01,000.00,030.2,028.6,000.0,038.7,031.7,16.9,0000.0,0003.18,0004.89,0002.82
2023-06-18 05:58:00,SystemResetWarning,0829.1,5.00,000.00,030.2,028.6,000.0,038.7,031.8,16.9,0000.0,0003.20,0004.96,0002.83
2023-06-18 05:59:00,SystemResetWarning,0829.1,5.00,000.00,030.2,028.6,000.0,038.7,031.7,17.1,0000.0,0003.23,0005.06,0002.86
